National Weather Service Hourly Weather Roundup
NOAA NWS Hourly Roundups by Site
NOAA NWS Hourly Roundups by Site
Regional Weather Roundup for Sacramento, CA

To Select Another Site Choose from List

Select Site:  

000
ASUS46 KSTO 011015
RWRCA

NORTHERN AND CENTRAL CA REGIONAL WEATHER ROUNDUP
NATIONAL WEATHER SERVICE SACRAMENTO CA
300 AM PDT WED APR 01 2020

NOTE: FAIR INDICATES FEW OR NO CLOUDS BELOW 12,000 FEET WITH NO
SIGNIFICANT WEATHER AND/OR OBSTRUCTIONS TO VISIBILITY.

CAZ001-003-011100-
NORTHWEST AREA

CITY           SKY/WX    TMP DP  RH WIND       PRES   REMARKS
CRESCENT CITY  FAIR      38  36  92 E6        30.17F WCI  33
UKIAH          FAIR      45  38  76 N5        30.05F
$$

CAZ006-505>513-011100-
BAY AREA

CITY           SKY/WX    TMP DP  RH WIND       PRES   REMARKS
SANTA ROSA     FAIR      44  38  79 W6        30.03F
SAN RAFAEL     N/A       MM  MM  MM MISG
NAPA           FAIR      45  39  79 W9        30.00F
CONCORD        FAIR      52  45  77 SW9       30.01F
OAKLAND CITY   N/A       54  MM  MM MISG
OAKLAND        MOCLDY    54  44  69 NW6       30.03F
SAN FRAN CITY  N/A       52  MM  71 MISG
SAN FRAN ARPT  FAIR      52  41  66 W16       30.03F
LIVERMORE      FAIR      51  48  89 SW5       30.01F
HAYWARD        FAIR      52  45  77 W6        30.02F
SAN JOSE ARPT  FAIR      52  43  71 N14       30.03F
$$
CAZ034-037-514>518-011100-
CENTRAL COAST

CITY           SKY/WX    TMP DP  RH WIND       PRES   REMARKS
WATSONVILLE    CLOUDY    54  52  93 CALM      30.03F
SALINAS        CLOUDY    54  49  83 W12       30.02S
MONTEREY       MOCLDY    56  50  80 W6        30.03F
SAN LUIS OBISP FAIR      53  50  89 NW12      29.92F
SANTA MARIA    FAIR      54  51  90 NW8       29.91F FOG
$$
CAZ015-016-011100-
NORTHERN SACRAMENTO VALLEY

CITY           SKY/WX    TMP DP  RH WIND       PRES   REMARKS
REDDING        FAIR      48  31  51 NW5       29.98F
RED BLUFF      FAIR      48  27  44 NW10      30.00F
OROVILLE       CLOUDY    50  42  74 CALM      29.98S
$$
CAZ016>018-011100-
SOUTHERN SACRAMENTO VALLEY

CITY           SKY/WX    TMP DP  RH WIND       PRES   REMARKS
AUBURN         MOCLDY    50  50 100 SE3       29.97F
BEALE AFB      MOCLDY    51  49  93 CALM      29.96F
LINCOLN        PTSUNNY   52  50  93 SE7       29.96F
MARYSVILLE     FAIR      48  46  93 W3        29.98F
SAC INTL ARPT  FAIR      48  46  93 CALM      29.96F
MATHER AIRPORT CLEAR     46  46 100 SE7       29.96
DOWNTOWN SAC   N/A       50  MM  MM MISG
SAC EXEC ARPT  FAIR      49  46  90 S5        29.97F
VACAVILLE      FAIR      45  41  86 CALM      29.98F
TRAVIS AFB     FAIR      45  41  86 SW9       29.97F
$$
CAZ019>021-011100-
SAN JOAQUIN VALLEY

CITY           SKY/WX    TMP DP  RH WIND       PRES   REMARKS
STOCKTON       FAIR      52  48  86 W7        29.98F
MODESTO        FAIR      52  47  83 N7        29.98F
MERCED         FAIR      52  47  83 N7        29.97F
LEMOORE        FAIR      52  47  83 NW10      29.96F
FRESNO         FAIR      56  49  77 NW8       29.96F
HANFORD        FAIR      55  50  83 NW7       29.96F
PORTERVILLE    FAIR      48  47  96 S3        29.97F
BAKERSFIELD    FAIR      55  46  71 N5        29.95F
$$
CAZ011-012-071-011100-
NORTHERN MOUNTAINS

CITY           SKY/WX    TMP DP  RH WIND       PRES   REMARKS
YREKA          FAIR      26  21  81 NE6       30.05F WCI  19
MOUNT SHASTA   FAIR      31  24  75 NW7       29.99F WCI  24
ALTURAS        CLOUDY    33  21  61 NW9       29.95F WCI  25
$$
CAZ011-012-071-011100-
SIERRA NEVADA MTNS

CITY           SKY/WX    TMP DP  RH WIND       PRES   REMARKS
TRUCKEE        FAIR      37  28  70 S8G16     29.95F WCI  31
TAHOE VLY ARPT FAIR      40  24  53 SE6       29.95F
MAMMOTH LAKES  FAIR      48   9  20 SW18G32   29.96F
$$


 

View Past Reports for Sacramento, CA.

Products Courtesy of NOAA-NWS
NWS Information Parsing Script by Ken True at Saratoga Weather - Script by SE Lincoln Weather.

powered by Cumulus v1.9.3 (1059)
Ambient Weather VWS v14.00
Top Website Map Copyright © 2007 - 2020 Foresthillweather.com Never base important decisions on this or any weather information obtained from the Internet